Weather History for Big Piney, WY

Change the Weather History Date:

Monday, September 2, 2013

  Actual Average Record
Temperature  
Mean Temperature 64 °F 55 °F  
Max Temperature 76 °F 74 °F 84 °F (1998)
Min Temperature 52 °F 36 °F 26 °F (1976)
Degree Days  
Heating Degree Days 1 10  
Month to date heating degree days 5 20  
Since 1 July heating degree days 106 313  
Cooling Degree Days 0 0  
Month to date cooling degree days 0 0  
Year to date cooling degree days 84 35  
Growing Degree Days 14 (Base 50)    
Moisture  
Dew Point 48 °F    
Average Humidity 62    
Maximum Humidity 93    
Minimum Humidity 30    
Precipitation  
Precipitation 0.02 in 0.02 in 0.28 in (1999)
Month to date precipitation 0.02 0.05  
Year to date precipitation 3.02 4.71  
Sea Level Pressure  
Sea Level Pressure 29.98 in    
Wind  
Wind Speed 6 mph (NNW)    
Max Wind Speed 20 mph    
Max Gust Speed 24 mph    
Visibility 10 miles    
Events Rain , Thunderstorm    
T = Trace of Precipitation, MM = Missing Value Source: NWS Daily Summary

Daily Weather History Graph

Daily Weather History Graph

Search for Another Location

Airport:

Trip Planner

Search our weather history database for the weather conditions in past years. The results will help you decide how hot, cold, wet, or windy it might be!

Date:

Astronomy

Sep. 02, 2013 Rise Set
Actual Time 6:46 AM MDT 7:52 PM MDT
Civil Twilight 6:17 AM MDT 8:21 PM MDT
Nautical Twilight 5:43 AM MDT 8:55 PM MDT
Astronomical Twilight 5:06 AM MDT 9:31 PM MDT
Moon 4:04 AM MDT (9/2) 6:09 PM MDT (9/2)
Length of Visible Light 14h 03m
Length of Day
13h 05m
Waning Crescent, 7% of the Moon is Illuminated
Sep 2
Waning Crescent
Sep 5
New
Sep 12
First Quarter
Sep 19
Full
Sep 26
Last Quarter

Hourly Weather History & Observations

Time (MDT) Temp. Dew Point Humidity Pressure Visibility Wind Dir Wind Speed Gust Speed Precip Events Conditions
12:53 AM 62.1 °F 30.9 °F 31% 29.91 in 10.0 mi East 4.6 mph - N/A   Scattered Clouds
1:53 AM 60.1 °F 34.0 °F 38% 29.91 in 10.0 mi North 6.9 mph - N/A   Partly Cloudy
2:53 AM 60.1 °F 30.9 °F 33% 29.91 in 10.0 mi NNE 3.5 mph - N/A   Scattered Clouds
3:53 AM 59.0 °F 33.1 °F 38% 29.91 in 10.0 mi Calm Calm - N/A   Mostly Cloudy
4:53 AM 59.0 °F 37.0 °F 44% 29.90 in 10.0 mi NE 4.6 mph - 0.00 in   Overcast
5:53 AM 59.0 °F 42.1 °F 53% 29.90 in 10.0 mi ENE 6.9 mph - 0.00 in   Overcast
6:53 AM 59.0 °F 43.0 °F 55% 29.91 in 10.0 mi Calm Calm - 0.00 in Rain Light Rain
7:53 AM 57.0 °F 46.9 °F 69% 29.94 in 10.0 mi WNW 3.5 mph - 0.00 in   Overcast
8:53 AM 61.0 °F 46.0 °F 58% 29.97 in 10.0 mi NW 4.6 mph - N/A   Overcast
9:53 AM 64.9 °F 45.0 °F 48% 29.97 in 10.0 mi NW 3.5 mph - N/A   Overcast
10:53 AM 68.0 °F 46.9 °F 47% 29.97 in 10.0 mi Variable 3.5 mph - N/A   Mostly Cloudy
11:53 AM 70.0 °F 46.0 °F 42% 29.95 in 10.0 mi Variable 3.5 mph - N/A   Mostly Cloudy
12:53 PM 75.0 °F 48.0 °F 38% 29.90 in 10.0 mi Calm Calm - N/A   Overcast
1:50 PM 69.8 °F 53.6 °F 56% 30.22 in 10.0 mi NNW 15.0 mph - 0.00 in   Overcast
1:53 PM 71.1 °F 52.0 °F 51% 29.92 in 10.0 mi NNW 16.1 mph - 0.00 in   Overcast
2:18 PM 71.6 °F 50.0 °F 46% 30.21 in 10.0 mi NNW 13.8 mph - N/A Thunderstorm Thunderstorm
2:47 PM 64.4 °F 57.2 °F 77% 30.23 in 10.0 mi WNW 9.2 mph - 0.02 in Rain , Thunderstorm Light Rain
2:53 PM 64.9 °F 57.0 °F 75% 29.96 in 10.0 mi WNW 11.5 mph - 0.02 in Rain , Thunderstorm Light Rain
3:09 PM 68.0 °F 57.2 °F 68% 30.24 in 10.0 mi NW 11.5 mph - 0.00 in   Mostly Cloudy
3:53 PM 68.0 °F 54.0 °F 61% 29.96 in 10.0 mi WNW 15.0 mph - 0.00 in   Mostly Cloudy
4:53 PM 68.0 °F 55.0 °F 63% 29.94 in 10.0 mi NNW 11.5 mph - 0.00 in Rain Light Rain
5:53 PM 72.0 °F 54.0 °F 53% 29.92 in 10.0 mi North 10.4 mph - 0.00 in   Overcast
6:53 PM 68.0 °F 55.0 °F 63% 29.94 in 10.0 mi NNE 10.4 mph - N/A   Overcast
7:53 PM 66.0 °F 55.0 °F 68% 29.95 in 10.0 mi Calm Calm - N/A   Partly Cloudy
8:53 PM 60.1 °F 55.0 °F 83% 29.97 in 10.0 mi NNW 6.9 mph - N/A   Mostly Cloudy
9:53 PM 55.9 °F 53.1 °F 90% 29.99 in 10.0 mi North 4.6 mph - N/A   Clear
10:53 PM 53.1 °F 51.1 °F 93% 30.00 in 10.0 mi WSW 3.5 mph - N/A   Clear
11:53 PM 55.0 °F 53.1 °F 93% 29.99 in 10.0 mi NNW 9.2 mph - N/A   Clear